GFSGL_2pvu_pres_159.txt.gz
Presure
133 140 135 134 151 163 161 143 176 180 264 319 181 183 206 197 200 194 187 166 162 145 159 157 135 133 136 129 139 134 127 130 128 133 137 130 139 142 132 137 132 148 141
147 137 136 128 142 153 157 161 170 169 166 170 183 161 176 182 175 214 221 154 162 176 145 155 148 137 135 139 135 134 143 139 134 130 144 150 143 144 139 142 136 145 148
147 158 132 137 145 140 144 152 150 159 183 164 171 167 163 164 175 167 166 176 179 174 186 139 147 151 159 147 144 142 139 146 150 143 136 139 138 134 140 146 129 137 137
151 127 130 135 141 150 144 159 172 155 162 168 163 167 176 174 167 168 184 160 167 169 183 155 142 145 144 138 151 163 150 155 152 153 149 140 138 133 124 115 140 160 139
139 134 179 163 143 160 142 150 158 167 152 169 164 148 179 188 176 176 180 180 189 182 195 194 160 150 157 143 145 143 141 155 154 146 144 144 149 149 142 149 149 138 153
139 139 169 148 197 137 136 154 151 144 147 173 144 158 179 190 174 187 178 171 180 185 181 192 183 152 144 154 139 149 143 152 157 155 147 152 150 154 156 158 135 146 153
158 179 156 155 135 175 138 134 142 146 148 181 156 169 168 177 162 159 180 172 171 169 170 185 170 179 161 145 158 151 137 143 150 163 150 155 153 149 151 153 155 154 153
167 160 158 182 164 147 184 134 147 145 149 160 154 149 150 135 151 160 162 146 174 183 172 180 172 171 184 158 151 160 159 136 135 157 167 152 158 142 149 154 153 152 152
146 162 144 167 178 174 167 198 183 152 163 152 150 137 151 160 169 146 163 169 175 147 178 171 181 171 170 183 162 155 153 140 151 161 148 150 148 143 142 142 140 144 141
171 168 181 162 170 170 173 174 158 186 133 134 146 148 151 144 142 143 149 185 138 171 187 169 183 183 174 172 164 170 169 150 153 153 149 146 150 156 151 154 154 153 131
169 192 202 171 146 185 170 167 193 197 173 152 204 149 144 164 151 143 142 141 151 152 158 158 214 192 174 214 199 174 164 184 155 148 148 149 152 158 146 147 148 153 150
155 170 193 164 212 185 172 177 245 201 188 192 193 175 143 160 155 157 165 157 156 151 154 147 169 175 165 160 174 160 176 172 176 158 159 161 155 164 153 152 180 146 159
170 171 182 204 182 189 225 215 193 194 200 193 187 184 194 191 198 202 199 198 156 151 151 137 138 148 153 173 139 192 157 171 196 174 164 158 160 132 131 159 144 156 147
137 141 149 153 159 164 168 199 207 208 205 197 197 201 198 195 194 194 199 202 201 198 200 161 160 150 145 150 146 160 193 152 170 199 168 171 166 157 161 166 140 150 156
156 149 146 156 158 162 162 167 184 195 206 219 223 228 228 223 223 225 227 228 229 231 210 193 198 207 184 149 152 145 145 145 149 170 175 147 146 149 157 135 123 144 145
177 159 162 170 155 165 166 182 182 182 214 220 219 219 215 213 208 207 210 214 218 221 223 229 233 225 192 204 197 157 154 152 147 145 143 142 147 158 146 145 148 133 142
172 170 193 175 170 175 179 187 164 188 218 214 209 202 197 198 202 205 210 213 212 211 213 215 224 253 232 240 216 195 206 160 157 155 151 152 164 151 153 147 185 187 142
183 201 188 176 242 171 191 170 179 198 214 208 201 194 190 193 201 221 392 404 365 294 260 256 244 241 235 250 233 243 240 197 197 171 161 161 158 143 154 153 153 153 154
178 171 205 200 184 195 203 168 192 198 207 199 192 188 193 203 254 337 325 317 307 299 292 291 259 241 246 237 239 247 218 227 232 216 188 192 176 163 160 161 161 160 160
199 227 225 191 198 175 177 175 191 206 196 189 192 193 187 250 238 292 291 286 272 269 262 263 276 351 278 256 233 229 245 248 266 218 221 230 228 184 175 179 189 184 182
224 232 221 216 216 190 200 214 206 197 188 184 186 194 221 239 226 313 252 243 253 247 254 245 262 279 250 239 238 243 247 303 257 246 218 213 218 227 227 221 220 219 176
225 214 221 215 209 212 204 202 194 183 183 179 191 187 219 237 223 223 287 275 256 250 236 250 242 237 235 226 240 239 235 235 243 238 236 231 234 240 217 216 220 218 206
213 209 209 211 204 202 197 193 179 183 175 194 193 192 209 233 224 215 219 253 252 249 235 229 246 224 215 225 226 219 218 224 228 227 226 227 224 217 214 228 225 222 218
204 202 205 208 203 204 198 173 175 180 190 187 192 218 222 235 227 215 208 207 227 232 259 260 251 242 224 227 205 205 207 206 206 208 220 204 203 207 205 202 204 204 198
200 203 203 190 194 199 186 189 186 181 185 192 186 212 211 231 227 216 217 203 208 207 238 245 232 246 261 246 247 240 219 215 239 229 225 231 248 250 238 223 223 225 232
201 194 208 195 185 192 189 184 180 186 190 183 193 198 214 218 237 224 218 206 205 201 205 223 242 238 248 238 244 265 268 251 229 228 219 217 215 214 213 211 210 211 211

GFSGL_2pvu_pres_162.txt.gz
Presure
137 140 128 138 143 152 155 139 169 177 192 209 310 332 263 303 236 185 185 171 172 149 143 153 159 140 136 128 134 134 132 132 130 139 125 145 149 143 141 134 110 138 137
142 155 136 131 141 139 159 158 175 166 177 181 173 170 189 225 204 212 204 202 202 167 146 136 151 154 136 143 131 133 139 142 133 131 123 135 109 137 133 141 130 137 139
168 188 133 135 135 138 139 158 156 168 176 177 174 186 184 169 185 185 187 209 203 217 176 149 143 154 153 155 132 135 137 139 136 141 143 145 142 132 141 139 146 155 140
131 147 153 140 132 135 135 135 148 148 166 173 181 181 168 189 187 181 180 174 182 198 166 167 161 144 153 153 149 143 153 155 148 142 136 145 154 156 160 147 136 130 131
193 129 169 163 129 141 132 151 155 146 163 154 154 156 183 185 183 184 182 196 183 179 180 180 180 171 143 141 143 151 146 141 143 169 162 155 155 153 147 146 148 138 144
132 183 172 202 182 159 133 140 137 156 162 179 179 137 162 139 198 177 191 175 176 192 183 182 185 183 179 188 149 144 145 145 142 150 139 149 151 153 154 152 147 155 158
189 147 156 144 136 161 185 160 149 151 151 161 152 146 133 168 160 142 207 199 179 173 186 189 195 184 193 190 178 157 145 141 155 147 145 139 144 149 158 162 151 155 161
177 174 165 155 166 166 163 162 147 169 151 128 150 150 165 164 149 153 158 151 177 174 159 171 182 179 187 184 194 179 162 154 153 151 158 156 148 140 147 151 163 169 159
188 178 157 144 170 187 150 163 150 132 140 171 145 162 171 169 159 149 151 165 159 165 155 165 173 179 197 182 181 177 174 165 173 154 150 154 156 159 141 152 157 159 158
168 169 166 138 178 128 121 125 152 129 174 171 193 195 178 144 138 151 135 139 145 150 138 157 166 179 180 154 171 171 172 178 163 175 179 148 148 147 142 142 150 153 154
139 157 158 170 172 159 166 178 186 173 173 175 168 167 159 179 194 208 154 164 162 157 142 155 140 141 154 170 160 176 178 199 176 172 171 173 164 160 163 161 162 166 169
204 187 187 180 140 168 194 155 166 149 175 180 168 173 225 191 186 183 198 202 196 193 155 186 155 181 152 142 143 145 160 210 204 163 164 179 170 171 168 164 166 155 167
153 174 161 191 164 170 176 212 170 193 178 241 218 210 201 197 223 212 188 185 190 191 193 196 197 199 199 152 157 155 145 148 133 189 185 188 154 151 151 150 171 166 176
134 164 190 174 168 170 170 186 186 175 161 166 168 167 185 176 189 249 244 231 218 208 198 187 191 192 192 197 201 205 157 142 143 150 149 143 175 134 161 157 149 146 175
171 141 143 145 148 150 150 150 154 151 158 167 176 167 179 176 183 201 232 225 224 226 225 224 225 225 227 236 213 193 195 198 197 161 150 151 147 153 145 136 135 136 145
143 160 179 183 151 153 149 154 152 155 168 169 160 174 193 219 181 187 225 218 213 211 213 213 216 221 219 219 223 226 232 239 206 193 197 177 159 155 153 149 151 146 151
177 183 161 164 179 170 162 160 173 183 160 167 176 169 208 217 181 180 195 213 207 206 205 212 219 218 212 214 214 211 207 214 225 233 227 186 116 183 181 159 159 158 113
176 184 177 163 157 157 168 171 157 161 181 177 181 172 196 183 197 205 202 204 203 216 215 346 434 398 365 288 261 230 224 214 206 201 216 225 228 235 185 183 189 178 161
184 172 191 176 204 181 186 183 182 181 180 188 198 170 213 214 193 205 200 195 206 222 291 293 287 278 286 288 280 262 240 233 240 241 238 235 223 215 224 232 221 175 177
184 168 187 174 178 159 181 194 171 193 228 219 206 210 205 208 202 197 192 185 199 249 285 274 254 265 251 251 243 252 253 242 254 265 266 353 228 229 226 219 218 222 226
231 192 177 185 208 171 180 196 212 202 237 232 211 211 201 198 192 189 185 197 250 233 268 261 249 254 280 249 264 261 254 246 239 239 239 238 236 224 217 224 277 283 263
261 231 190 185 187 199 194 195 227 196 217 213 206 198 198 193 184 184 178 229 248 230 221 274 257 235 230 241 235 242 251 242 229 235 239 247 241 246 247 239 236 244 237
236 223 223 218 203 190 204 190 216 218 205 209 191 196 193 182 167 183 195 208 238 227 218 207 241 258 254 221 229 231 223 225 228 225 222 223 225 233 236 222 237 211 223
230 214 225 237 176 180 184 221 212 205 203 201 205 198 196 166 183 184 195 218 235 240 219 217 204 220 245 242 241 248 231 218 214 213 216 216 216 213 218 213 211 213 238
233 226 220 224 199 185 211 206 198 200 195 190 192 193 192 186 184 193 201 215 243 243 224 219 206 214 207 223 238 255 242 231 267 272 275 235 231 224 218 217 225 230 227
206 205 207 217 199 191 192 195 199 205 199 189 189 183 188 180 190 191 203 260 245 239 227 221 208 202 202 203 213 219 228 253 245 229 230 241 250 260 268 267 248 228 219

GFSGL_2pvu_pres_165.txt.gz
Presure
145 137 137 143 133 144 151 159 172 178 184 188 200 276 301 242 251 267 177 201 189 161 138 155 158 165 129 137 144 132 124 126 127 143 146 133 135 133 163 154 150 136 121
169 145 134 138 135 141 146 142 162 168 153 180 181 188 228 326 311 251 300 179 192 180 161 132 158 150 161 171 130 132 129 137 136 144 143 127 132 136 133 126 144 139 119
232 202 134 161 133 142 140 139 141 159 167 157 183 174 180 203 211 277 261 274 188 171 191 186 181 154 148 160 162 146 137 136 134 135 143 140 146 142 144 131 150 136 155
218 205 154 141 148 138 143 135 134 151 143 151 161 180 177 179 183 190 199 200 213 212 215 218 222 159 156 145 159 161 162 138 139 135 138 142 143 146 140 138 151 162 160
161 197 197 154 158 143 147 144 139 133 136 151 159 169 152 166 178 178 192 200 196 194 201 202 205 212 174 149 147 156 158 160 155 148 148 147 160 162 160 160 145 161 159
209 170 138 118 154 169 141 145 147 146 145 168 162 161 128 146 171 152 159 163 177 193 179 179 184 203 196 174 177 170 143 147 161 154 152 146 146 140 145 141 149 147 152
198 153 137 136 180 126 151 180 176 164 141 130 165 147 144 147 135 159 167 155 166 196 182 180 193 189 182 181 186 191 190 190 162 150 144 149 151 157 143 144 146 142 144
164 126 191 195 155 159 131 147 129 141 155 162 160 149 146 145 146 135 163 180 151 150 180 169 181 179 181 178 187 183 176 208 201 203 155 158 151 148 155 157 150 153 156
162 231 171 185 142 174 173 157 179 136 180 120 161 138 134 167 149 165 165 148 160 133 160 157 163 153 160 163 161 161 164 186 200 207 197 195 162 159 152 148 149 156 152
185 194 132 173 178 160 181 124 156 153 140 133 151 183 192 127 184 192 177 185 135 141 152 149 149 146 149 141 159 159 169 163 171 180 178 174 173 171 169 171 174 176 172
198 151 168 159 176 164 149 176 130 153 151 124 161 158 146 122 170 167 172 157 197 157 167 140 140 165 144 155 166 152 143 163 155 157 168 174 165 168 172 175 168 163 164
172 176 164 195 161 169 163 163 173 201 177 187 169 175 130 180 210 190 191 182 180 178 163 215 205 135 149 137 142 141 140 139 144 148 154 156 161 166 208 212 196 160 176
180 125 163 174 167 183 187 186 137 151 181 207 156 176 187 218 193 172 168 165 167 163 220 189 265 258 222 195 193 192 187 187 200 196 141 147 141 148 146 149 179 182 189
141 126 163 180 176 178 167 159 176 179 141 175 165 201 171 173 156 153 158 164 120 176 234 183 195 237 234 234 231 234 240 208 191 186 190 195 192 198 150 144 145 143 136
169 149 147 174 198 160 193 218 174 170 167 179 182 162 152 147 159 160 159 162 165 180 191 195 177 216 219 214 210 209 209 211 221 238 229 195 184 184 190 188 185 183 156
170 182 165 179 192 132 145 141 173 174 175 152 146 149 152 152 158 160 163 170 180 168 223 179 201 218 206 204 203 209 207 198 198 204 210 220 227 205 185 180 182 185 187
172 143 133 142 188 137 139 144 170 158 141 145 153 154 159 163 156 168 175 163 192 216 220 211 216 202 209 194 210 203 392 263 215 206 205 203 201 204 223 236 195 183 174
177 153 179 179 145 199 147 153 150 152 157 155 154 161 160 162 179 177 168 225 206 217 214 204 207 205 193 305 320 395 391 347 295 258 243 217 203 200 201 197 204 214 232
210 193 182 186 186 165 165 158 158 159 159 169 164 167 190 189 170 176 216 205 227 209 206 201 198 195 207 295 277 279 275 264 296 290 276 259 242 233 223 200 197 194 193
235 201 192 202 187 181 189 177 180 181 181 182 163 187 169 179 179 224 220 232 212 207 201 196 194 197 204 276 290 258 243 242 251 256 255 256 257 260 256 258 235 224 228
206 227 220 184 183 193 192 180 177 184 190 201 168 163 194 175 233 234 220 214 195 200 196 181 192 196 248 232 262 249 252 247 248 251 233 229 228 227 229 252 237 243 246
222 204 264 221 212 208 202 199 183 162 196 206 196 170 180 220 208 217 211 205 204 199 175 187 192 200 246 236 218 261 240 225 225 235 241 250 249 247 240 241 236 248 243
251 233 216 241 248 239 218 220 210 231 214 206 209 198 196 193 221 213 204 203 200 189 186 189 193 222 243 227 223 210 253 253 248 232 226 221 219 220 225 229 231 223 221
226 225 217 226 234 234 233 228 240 232 216 211 216 200 187 216 208 200 196 193 196 198 191 187 193 255 239 229 216 211 208 232 271 250 240 266 248 240 237 232 223 219 218
217 214 211 249 215 213 216 218 213 214 217 207 208 184 187 208 201 207 187 193 192 187 191 207 219 258 239 231 215 206 206 203 206 222 226 244 243 236 226 222 248 266 266
214 220 222 216 238 244 241 206 207 213 200 220 203 202 199 195 204 199 188 197 184 186 190 199 239 222 239 226 219 213 211 206 204 206 209 220 222 217 223 230 239 237 240

GFSGL_2pvu_pres_168.txt.gz
Presure
160 154 144 137 143 151 152 158 153 157 165 179 187 188 210 257 258 245 186 172 162 168 169 176 151 164 168 140 134 141 135 128 139 140 143 146 139 137 133 136 138 157 152
161 162 157 137 141 136 145 154 153 153 162 171 171 184 187 214 242 302 340 251 172 163 188 168 177 185 149 173 145 136 143 147 133 131 131 137 128 129 148 139 129 134 120
180 179 167 151 139 140 151 145 159 144 152 167 159 166 182 180 176 230 255 252 252 235 170 170 178 142 152 186 160 160 135 130 136 138 135 135 137 141 144 143 151 144 141
190 172 152 168 144 137 136 143 146 149 147 145 149 151 181 178 176 182 175 214 326 317 255 166 169 191 181 181 152 185 153 159 168 155 140 139 146 163 139 140 144 144 148
167 174 163 185 163 154 142 151 142 149 141 143 152 154 163 147 157 158 184 175 186 211 235 235 183 180 169 176 220 167 148 169 152 167 166 165 164 138 135 142 145 142 176
181 170 151 197 217 164 168 145 154 154 158 133 145 156 154 163 144 150 152 151 162 175 168 200 207 203 210 211 215 225 219 153 149 150 135 137 140 151 157 152 148 158 147
223 151 168 199 162 213 166 159 112 145 158 152 158 146 160 160 140 149 145 156 147 160 159 162 180 193 184 185 192 188 191 191 172 163 160 168 167 179 156 155 155 154 151
217 205 198 160 213 168 168 139 199 167 157 191 133 158 155 145 154 163 133 144 144 156 157 158 153 162 160 170 185 197 186 183 190 185 182 176 177 192 196 184 158 153 154
204 197 209 140 149 171 189 142 159 146 170 124 143 155 186 168 143 135 138 166 140 159 148 193 177 177 162 158 151 151 162 160 168 161 161 163 160 162 170 189 189 171 143
207 190 210 195 144 142 159 171 150 162 143 127 161 135 181 137 179 148 176 143 162 153 197 144 185 192 178 149 162 170 155 156 152 152 158 174 164 170 169 170 177 167 175
208 178 200 175 169 173 191 184 176 150 147 167 133 169 139 179 125 182 175 152 146 168 159 155 185 140 140 161 142 144 148 156 139 175 151 149 143 160 165 168 165 165 163
188 211 178 168 149 167 161 153 164 154 169 196 164 149 136 163 135 166 130 114 192 175 176 171 177 166 169 134 181 133 234 168 131 152 136 141 146 139 148 141 160 155 159
195 201 226 190 170 151 146 187 147 157 166 166 168 164 178 176 189 187 172 185 202 173 170 125 164 169 169 192 183 195 176 229 139 148 204 198 157 143 148 143 145 146 143
181 172 206 159 181 124 180 152 163 169 171 181 153 164 168 150 157 166 181 188 183 160 161 157 154 156 158 179 238 214 179 188 218 217 222 223 231 233 208 192 189 190 188
202 178 195 183 149 126 153 190 177 186 177 184 185 152 160 186 134 150 175 148 156 159 158 165 159 161 186 205 217 224 225 219 205 205 203 206 208 208 209 221 230 215 187
180 195 178 179 179 172 140 148 187 183 174 165 168 152 175 164 177 168 183 154 153 157 159 152 159 178 230 214 224 201 212 208 202 195 194 209 212 208 209 201 202 210 222
191 192 176 177 147 171 189 188 165 138 137 185 180 180 200 168 168 176 143 146 152 154 157 149 166 211 211 222 211 213 209 194 199 215 332 432 377 264 246 212 206 200 194
193 195 169 160 175 154 170 185 182 170 174 144 207 179 177 150 141 139 148 150 162 175 156 184 179 235 231 215 214 210 192 196 271 287 288 384 367 327 279 249 235 210 198
216 192 185 166 180 174 185 147 186 154 167 143 165 146 159 150 152 153 150 150 184 171 172 190 203 227 221 206 206 210 201 241 273 275 264 256 286 327 313 300 246 241 233
206 224 193 235 163 140 159 181 170 146 149 155 153 146 149 151 142 155 172 186 189 160 203 175 227 219 213 213 210 210 200 251 248 254 259 251 241 233 248 249 253 259 267
208 217 220 222 193 202 185 186 192 174 181 138 140 142 142 159 160 173 173 170 201 199 164 219 219 208 205 206 213 202 199 251 233 263 255 233 227 240 247 242 244 242 238
290 246 292 218 225 245 208 208 193 181 185 186 180 172 178 183 195 187 202 216 206 204 200 221 207 206 201 207 198 193 259 239 230 225 250 260 243 236 234 230 232 228 232
266 265 274 221 276 235 219 203 213 227 214 201 195 184 195 207 200 204 205 222 205 204 193 211 203 198 195 202 196 196 253 238 229 221 215 210 260 250 240 237 234 229 231
245 221 254 257 216 247 236 218 224 227 260 223 246 210 206 204 232 236 214 210 204 192 210 201 207 197 194 185 194 236 250 232 227 220 217 214 212 233 234 232 251 249 241
246 241 216 242 245 249 249 244 248 205 198 241 237 232 234 225 242 234 211 201 201 201 197 194 206 190 192 186 193 224 217 218 223 224 218 217 213 206 205 210 219 221 221
229 217 225 235 227 228 234 237 239 238 232 230 226 225 218 210 203 195 199 203 191 184 192 203 193 184 183 188 198 193 215 204 244 202 205 218 223 225 215 210 205 204 207

GFSGL_2pvu_pres_171.txt.gz
Presure
161 149 146 145 152 144 149 154 161 163 155 165 173 178 184 196 205 235 258 248 243 180 170 183 171 172 157 161 163 144 155 142 138 133 138 137 137 137 152 150 136 158 157
160 170 152 169 141 151 151 149 153 163 161 167 171 175 172 185 187 198 227 249 265 257 254 162 161 177 161 161 162 145 181 130 143 135 141 133 124 128 133 141 147 155 142
147 159 190 160 165 152 130 151 147 145 152 163 164 167 168 182 186 183 180 178 243 294 326 268 179 167 168 179 167 174 177 156 160 134 136 135 131 128 130 138 132 144 133
175 162 153 183 160 143 146 144 141 144 160 147 152 149 154 173 190 181 183 162 174 222 309 262 259 194 159 154 155 157 129 147 158 150 151 156 160 160 153 150 151 150 155
180 171 170 180 176 158 159 129 137 142 142 139 152 140 153 149 157 158 167 156 145 168 170 259 310 293 151 145 164 154 155 166 169 169 159 161 160 160 154 158 155 158 158
219 227 180 198 179 180 181 150 191 144 158 155 133 133 149 156 161 146 149 163 154 159 170 172 188 238 242 189 204 186 190 201 210 212 163 153 134 146 138 143 149 134 144
215 214 209 183 116 180 191 169 176 176 151 149 131 172 146 159 146 159 147 157 149 150 152 155 166 163 171 183 183 171 191 185 200 202 204 203 165 166 169 167 160 164 181
221 212 214 207 191 168 163 157 173 227 161 156 147 139 144 156 158 158 148 156 143 137 141 148 151 173 163 162 163 174 173 187 184 186 188 183 180 185 188 180 180 185 183
218 211 222 223 215 140 140 164 185 142 165 133 158 165 137 179 181 169 152 140 155 138 142 152 145 192 147 186 166 166 165 161 153 158 174 171 167 163 161 155 146 143 141
210 216 261 224 227 219 180 235 133 185 118 165 139 140 126 147 142 183 175 126 135 137 127 166 127 168 172 176 146 197 180 205 157 149 163 161 161 164 166 161 158 163 164
215 213 254 218 219 214 207 170 123 163 172 177 165 128 125 138 144 175 157 138 167 160 180 133 169 153 176 161 163 173 171 145 144 142 139 142 139 140 140 135 149 134 131
107 221 203 215 118 199 189 194 176 170 174 165 178 113 143 154 174 144 177 147 160 140 166 126 164 181 155 166 163 158 150 151 147 169 149 154 145 231 179 132 144 170 156
216 225 235 216 197 202 127 182 195 190 182 195 173 180 188 187 142 151 148 163 188 125 176 130 123 168 180 169 161 166 166 164 171 160 244 220 185 193 174 153 202 184 187
215 216 250 212 194 187 183 182 171 162 189 177 177 151 144 173 167 170 170 123 150 167 179 176 161 188 129 160 156 154 159 165 166 230 216 224 199 199 216 203 209 222 217
214 210 207 232 189 181 184 168 180 138 167 186 152 144 150 169 172 165 167 163 173 153 186 134 153 197 164 145 153 153 160 154 165 233 236 226 224 217 213 214 176 209 204
213 208 223 222 187 204 171 171 163 144 133 168 176 193 184 173 172 170 185 162 165 144 192 164 181 186 144 148 144 154 160 169 172 246 233 222 216 219 207 200 203 213 210
216 217 219 235 191 203 182 174 171 162 147 162 178 185 185 174 199 194 190 179 163 176 173 180 163 146 144 150 150 165 180 197 239 229 223 218 220 205 205 253 274 407 371
218 225 219 220 191 197 210 193 183 176 164 148 143 155 160 200 185 181 167 166 163 173 197 150 166 146 146 150 151 185 210 166 229 226 220 222 209 199 265 265 268 264 329
200 223 225 220 194 180 202 202 193 191 189 167 177 186 172 166 171 178 188 184 183 171 177 180 151 143 148 150 169 192 211 208 221 217 214 199 207 253 272 263 256 253 256
211 221 230 224 198 197 184 192 149 194 179 149 189 186 181 142 170 164 174 183 153 151 186 149 150 154 153 156 218 210 222 214 220 203 207 200 251 244 283 249 243 236 239
239 205 216 227 222 235 193 197 183 185 185 170 170 135 183 145 175 148 165 148 151 190 150 151 168 152 153 216 232 211 212 208 213 207 197 227 252 234 224 214 248 245 235
199 194 208 226 230 229 225 223 186 188 181 177 186 174 151 179 174 150 178 177 157 166 147 147 175 189 218 247 208 212 203 205 210 196 196 253 245 232 224 221 214 259 252
200 215 201 224 236 234 229 227 211 192 201 207 166 186 189 190 175 173 151 188 187 205 212 226 214 212 248 209 220 204 194 211 196 188 195 212 235 232 226 222 215 210 209
233 194 214 210 231 272 269 274 220 246 239 215 221 219 237 218 186 156 215 220 213 213 213 215 233 231 208 212 204 197 193 205 194 197 188 207 232 219 194 235 227 230 226
215 178 206 213 214 230 248 261 254 262 226 283 252 235 217 214 214 224 247 262 217 217 235 229 227 208 219 207 197 191 192 194 192 190 191 184 217 207 211 209 202 197 201
203 209 203 188 234 253 251 249 248 248 247 247 242 233 239 250 215 217 216 234 235 221 222 216 207 197 208 198 191 193 195 191 194 186 187 204 194 216 210 213 210 196 198